This is the latest recevied weather packets stored in our database for station/object KM4NDN. If no packets are shown the sender has not sent any weather packets the latest 10 day(s).
| Time | Temp. | Humidity | Pressure | Rain* | Wind** | Luminosity | Snow |
|---|---|---|---|---|---|---|---|
| 1778122938 | 8.89° C | 63% | 1012.1 hPa | 0 mm | - | 0 W/m² | - |
| 1778122635 | 8.89° C | 65% | 1012.1 hPa | 0 mm | - | 0 W/m² | - |
| 1778122332 | 8.33° C | 69% | 1012.3 hPa | 0 mm | - | 0 W/m² | - |
| 1778122030 | 8.33° C | 71% | 1012.3 hPa | 0 mm | - | 0 W/m² | - |
| 1778121727 | 7.78° C | 73% | 1012.2 hPa | 0 mm | - | 0 W/m² | - |
| 1778121422 | 8.33° C | 73% | 1012.2 hPa | 0 mm | - | 0 W/m² | - |
| 1778121120 | 8.33° C | 72% | 1012.2 hPa | 0 mm | - | 0 W/m² | - |
| 1778120817 | 8.33° C | 73% | 1012 hPa | 0 mm | - | 0 W/m² | - |
| 1778120512 | 8.33° C | 72% | 1012.2 hPa | 0 mm | - | 0 W/m² | - |
| 1778120209 | 8.33° C | 72% | 1012 hPa | 0 mm | - | 0 W/m² | - |
| 1778119904 | 8.89° C | 70% | 1012 hPa | 0 mm | - | 0 W/m² | - |
| 1778119603 | 8.89° C | 67% | 1012.1 hPa | 0 mm | - | 0 W/m² | - |
| 1778119298 | 9.44° C | 65% | 1011.9 hPa | 0 mm | - | 0 W/m² | - |
| 1778118997 | 9.44° C | 62% | 1011.6 hPa | 0 mm | - | 0 W/m² | - |
| 1778118694 | 9.44° C | 61% | 1011.9 hPa | 0 mm | - | 0 W/m² | - |
| 1778118391 | 9.44° C | 60% | 1011.8 hPa | 0 mm | - | 0 W/m² | - |
| 1778118086 | 9.44° C | 58% | 1011.7 hPa | 0 mm | - | 0 W/m² | - |
| 1778117784 | 9.44° C | 59% | 1011.6 hPa | 0 mm | - | 0 W/m² | - |
| 1778117480 | 9.44° C | 58% | 1011.4 hPa | 0 mm | - | 0 W/m² | - |
| 1778117178 | 10° C | 57% | 1011.8 hPa | 0 mm | - | 0 W/m² | - |
| 1778116873 | 10° C | 57% | 1011.6 hPa | 0 mm | - | 0 W/m² | - |
| 1778116572 | 10° C | 56% | 1011.7 hPa | 0 mm | - | 0 W/m² | - |
| 1778116268 | 10° C | 55% | 1011.4 hPa | 0 mm | - | 0 W/m² | - |
| 1778115963 | 10° C | 56% | 1011.3 hPa | 0 mm | - | 0 W/m² | - |
| 1778115658 | 10° C | 54% | 1011.4 hPa | 0 mm | - | 0 W/m² | - |
* Rain latest hour (hover to see other rain measurements)
** Current wind speed in m/s (hover to see current wind gust speed)